Hourly Weather A dos Cunhados

Today, 7 March, Sunday

Time Temperature Precipitation Wind Pressure Humidity
00:00 +10°C° 0 mm 1 mps 755 mmHg 84%
01:00 +9°C° 0 mm 2 mps 755 mmHg 85%
02:00 +9°C° 0 mm 2 mps 755 mmHg 86%
03:00 +9°C° 0 mm 2 mps 755 mmHg 89%
04:00 +9°C° 0 mm 2 mps 755 mmHg 91%
05:00 +10°C° 0 mm 1 mps 755 mmHg 92%
06:00 +11°C° 0 mm 1 mps 755 mmHg 90%
07:00 +12°C° 0 mm 1 mps 755 mmHg 87%
08:00 +13°C° 0 mm 1 mps 755 mmHg 84%
09:00 +14°C° 0 mm 1 mps 755 mmHg 80%
10:00 +15°C° 0 mm 2 mps 755 mmHg 76%
11:00 +16°C° 0 mm 2 mps 755 mmHg 73%
12:00 +16°C° 0 mm 2 mps 755 mmHg 71%
13:00 +16°C° 0 mm 3 mps 754 mmHg 70%
14:00 +17°C° 0 mm 3 mps 754 mmHg 68%
15:00 +14°C° 0 mm 4 mps 754 mmHg 74%
16:00 +13°C° 0 mm 5 mps 754 mmHg 80%
17:00 +11°C° 0 mm 6 mps 753 mmHg 85%
18:00 +10°C° 0 mm 6 mps 754 mmHg 86%
19:00 +10°C° 0 mm 6 mps 754 mmHg 86%
20:00 +9°C° 0 mm 7 mps 755 mmHg 87%
21:00 +9°C° 0 mm 6 mps 754 mmHg 87%
22:00 +8°C° 0 mm 6 mps 754 mmHg 87%
23:00 +8°C° 0 mm 6 mps 754 mmHg 87%

Tomorrow, 8 March, Monday

Time Temperature Precipitation Wind Pressure Humidity
00:00 +8°C° 0 mm 6 mps 754 mmHg 86%
01:00 +8°C° 0 mm 6 mps 754 mmHg 86%
02:00 +8°C° 0 mm 6 mps 753 mmHg 85%
03:00 +8°C° 0 mm 6 mps 753 mmHg 84%
04:00 +8°C° 0 mm 6 mps 753 mmHg 83%
05:00 +8°C° 0 mm 6 mps 753 mmHg 82%
06:00 +8°C° 0 mm 7 mps 753 mmHg 80%
07:00 +9°C° 0 mm 7 mps 754 mmHg 79%
08:00 +9°C° 0 mm 7 mps 754 mmHg 77%
09:00 +10°C° 0 mm 7 mps 754 mmHg 75%
10:00 +11°C° 0 mm 7 mps 754 mmHg 74%
11:00 +11°C° 0 mm 7 mps 754 mmHg 73%
12:00 +11°C° 0 mm 8 mps 754 mmHg 73%
13:00 +11°C° 0 mm 8 mps 753 mmHg 73%
14:00 +11°C° 0 mm 9 mps 753 mmHg 73%
15:00 +10°C° 0 mm 8 mps 753 mmHg 76%
16:00 +10°C° 0 mm 7 mps 753 mmHg 78%
17:00 +9°C° 0 mm 6 mps 753 mmHg 81%
18:00 +9°C° 0 mm 6 mps 753 mmHg 83%
19:00 +8°C° 0 mm 6 mps 754 mmHg 86%
20:00 +8°C° 0 mm 6 mps 754 mmHg 88%
21:00 +8°C° 0 mm 6 mps 754 mmHg 87%
22:00 +8°C° 0 mm 6 mps 755 mmHg 86%
23:00 +8°C° 0 mm 7 mps 755 mmHg 85%

Day after tomorrow, 9 March, Tuesday

Time Temperature Precipitation Wind Pressure Humidity
00:00 +8°C° 0 mm 6 mps 755 mmHg 84%
01:00 +7°C° 0 mm 6 mps 755 mmHg 82%
02:00 +5°C° 0 mm 6 mps 754 mmHg 81%
03:00 +6°C° 0 mm 5 mps 755 mmHg 78%
04:00 +5°C° 0 mm 5 mps 755 mmHg 76%
05:00 +5°C° 0 mm 5 mps 755 mmHg 73%
06:00 +6°C° 0 mm 5 mps 755 mmHg 69%
07:00 +7°C° 0 mm 5 mps 756 mmHg 65%
08:00 +9°C° 0 mm 5 mps 756 mmHg 61%
09:00 +10°C° 0 mm 5 mps 756 mmHg 58%
10:00 +13°C° 0 mm 5 mps 757 mmHg 55%
11:00 +15°C° 0 mm 6 mps 757 mmHg 51%
12:00 +15°C° 0 mm 6 mps 756 mmHg 52%
13:00 +15°C° 0 mm 6 mps 756 mmHg 52%
14:00 +15°C° 0 mm 6 mps 756 mmHg 53%
15:00 +14°C° 0 mm 6 mps 756 mmHg 59%
16:00 +13°C° 0 mm 5 mps 756 mmHg 65%
17:00 +10°C° 0 mm 5 mps 756 mmHg 71%
18:00 +9°C° 0 mm 5 mps 757 mmHg 76%
19:00 +8°C° 0 mm 5 mps 757 mmHg 82%
20:00 +7°C° 0 mm 5 mps 758 mmHg 87%
21:00 +7°C° 0 mm 4 mps 758 mmHg 89%
22:00 +6°C° 0 mm 4 mps 758 mmHg 90%
23:00 +7°C° 0 mm 3 mps 758 mmHg 91%

10 March, Wednesday

Time Temperature Precipitation Wind Pressure Humidity
00:00 +7°C° 0 mm 3 mps 758 mmHg 91%
01:00 +7°C° 0 mm 3 mps 758 mmHg 90%
02:00 +5°C° 0 mm 3 mps 758 mmHg 90%
03:00 +5°C° 0 mm 3 mps 758 mmHg 90%
04:00 +5°C° 0 mm 3 mps 758 mmHg 91%
05:00 +6°C° 0 mm 2 mps 759 mmHg 91%
06:00 +8°C° 0 mm 2 mps 759 mmHg 87%
07:00 +9°C° 0 mm 3 mps 759 mmHg 83%
08:00 +11°C° 0 mm 3 mps 760 mmHg 78%
09:00 +13°C° 0 mm 3 mps 760 mmHg 70%
10:00 +14°C° 0 mm 3 mps 760 mmHg 62%
11:00 +17°C° 0 mm 3 mps 761 mmHg 54%
12:00 +17°C° 0 mm 3 mps 760 mmHg 54%
13:00 +17°C° 0 mm 3 mps 760 mmHg 55%
14:00 +17°C° 0 mm 3 mps 760 mmHg 55%
15:00 +16°C° 0 mm 3 mps 760 mmHg 61%
16:00 +14°C° 0 mm 3 mps 760 mmHg 67%
17:00 +12°C° 0 mm 3 mps 760 mmHg 73%
18:00 +11°C° 0 mm 3 mps 760 mmHg 78%
19:00 +10°C° 0 mm 3 mps 761 mmHg 83%
20:00 +9°C° 0 mm 2 mps 761 mmHg 88%
21:00 +9°C° 0 mm 2 mps 761 mmHg 90%
22:00 +9°C° 0 mm 2 mps 761 mmHg 91%
23:00 +10°C° 0 mm 1 mps 761 mmHg 92%

11 March, Thursday

Time Temperature Precipitation Wind Pressure Humidity
00:00 +10°C° 0 mm 1 mps 761 mmHg 92%
01:00 +10°C° 0 mm 1 mps 761 mmHg 92%
02:00 +9°C° 0 mm 0 mps 761 mmHg 92%
03:00 +9°C° 0 mm 1 mps 761 mmHg 92%
04:00 +9°C° 0 mm 1 mps 761 mmHg 93%
05:00 +9°C° 0 mm 1 mps 761 mmHg 93%
06:00 +11°C° 0 mm 1 mps 761 mmHg 90%
07:00 +12°C° 0 mm 1 mps 762 mmHg 87%
08:00 +14°C° 0 mm 1 mps 762 mmHg 84%
09:00 +15°C° 0 mm 1 mps 762 mmHg 80%
10:00 +17°C° 0 mm 2 mps 762 mmHg 75%
11:00 +18°C° 0 mm 2 mps 762 mmHg 70%
12:00 +17°C° 0 mm 2 mps 762 mmHg 72%
13:00 +17°C° 0 mm 3 mps 761 mmHg 74%
14:00 +17°C° 0 mm 3 mps 761 mmHg 76%
15:00 +16°C° 0 mm 3 mps 761 mmHg 78%
16:00 +16°C° 0 mm 3 mps 761 mmHg 79%
17:00 +14°C° 0 mm 3 mps 761 mmHg 81%
18:00 +13°C° 0 mm 3 mps 761 mmHg 85%
19:00 +12°C° 0 mm 3 mps 761 mmHg 89%
20:00 +11°C° 0 mm 3 mps 761 mmHg 93%
21:00 +12°C° 0 mm 2 mps 761 mmHg 94%
22:00 +12°C° 0 mm 2 mps 761 mmHg 94%
23:00 +10°C° 0 mm 2 mps 761 mmHg 95%

12 March, Friday

Time Temperature Precipitation Wind Pressure Humidity
00:00 +10°C° 0 mm 2 mps 761 mmHg 96%
01:00 +10°C° 0 mm 2 mps 760 mmHg 96%
02:00 +10°C° 0 mm 2 mps 760 mmHg 97%
03:00 +12°C° 0 mm 2 mps 760 mmHg 97%
04:00 +11°C° 0 mm 3 mps 760 mmHg 97%
05:00 +11°C° 0 mm 3 mps 760 mmHg 97%
06:00 +11°C° 0 mm 3 mps 760 mmHg 94%
07:00 +12°C° 0 mm 3 mps 760 mmHg 91%
08:00 +13°C° 0 mm 3 mps 760 mmHg 87%
09:00 +14°C° 0 mm 4 mps 760 mmHg 82%
10:00 +14°C° 0 mm 4 mps 760 mmHg 77%
11:00 +15°C° 0 mm 4 mps 760 mmHg 71%
12:00 +15°C° 0 mm 5 mps 760 mmHg 70%
13:00 +15°C° 0 mm 5 mps 760 mmHg 68%
14:00 +14°C° 0 mm 5 mps 759 mmHg 67%
15:00 +13°C° 0 mm 5 mps 759 mmHg 69%
16:00 +12°C° 0 mm 5 mps 759 mmHg 71%
17:00 +10°C° 0 mm 5 mps 759 mmHg 73%
18:00 +10°C° 0 mm 5 mps 759 mmHg 75%
19:00 +9°C° 0 mm 5 mps 760 mmHg 77%
20:00 +8°C° 0 mm 5 mps 760 mmHg 78%
21:00 +8°C° 0 mm 5 mps 760 mmHg 80%
22:00 +8°C° 0 mm 5 mps 760 mmHg 82%
23:00 +7°C° 0 mm 5 mps 760 mmHg 84%
Show more